Weather Roundup
Issued by NWS Springfield, MO

Home | Current Version | Previous Version | Text Only | Print | Product List | Glossary On
Versions: 1 2 3 4 5 6 7 8 9 10 11 12 13 14 15 16 17 18 19 20 21 22 23 24 25 26 27 28 29 30 31 32 33 34 35 36 37 38 39 40 41 42 43 44 45 46 47 48 49 50
000
NZUS99 KSGF 260857
HRRSGF

HOURLY WEATHER
NATIONAL WEATHER SERVICE SPRINGFIELD MO
400 AM CDT TUE JUL 26 2016

......SGF CWA......

CITY           SKY/WX    TMP DP  RH WIND       PRES   REMARKS
SPRINGFIELD    CLOUDY    74  71  91 E5        30.02F
JOPLIN         CLOUDY    74  72  93 E3        30.01F
WEST PLAINS    CLOUDY    75  72  90 CALM      30.05R

......SURROUNDING SGF CWA......

CITY           SKY/WX    TMP DP  RH WIND       PRES   REMARKS
CHANUTE        PTCLDY    74  72  93 NE3       30.01F
PARSONS          N/A    N/A N/A N/A MISG      30.02S
COFFEYVILLE    CLOUDY    76  74  93 NE3       30.00S
EMPORIA        CLOUDY    74  72  93 CALM      30.05R
HARRISON AR    CLOUDY    71  71 100 SE5       30.03R

......KANSAS AND MISSOURI......

CITY           SKY/WX    TMP DP  RH WIND       PRES   REMARKS
KANSAS CTY INT CLEAR     70  67  90 NE5       30.05S
SEDALIA        CLOUDY    72  70  93 CALM      30.05S
ST JOSEPH      CLEAR     65  63  93 N5        30.05S
ST LOUIS       CLOUDY    79  73  82 CALM      30.01S
WICHITA        CLOUDY    76  72  87 E3        30.04S
TOPEKA         CLEAR     68  66  93 CALM      30.04S
OLATHE         PTCLDY    71  68  90 E5        30.05S

......TENNESSEE......

CITY           SKY/WX    TMP DP  RH WIND       PRES   REMARKS
MEMPHIS        NOT AVBL
NASHVILLE      CLEAR     76  71  85 CALM      30.02R

......ARKANSAS.......

CITY           SKY/WX    TMP DP  RH WIND       PRES   REMARKS
FAYETTEVILLE   PTCLDY    72  72 100 CALM      30.01S
FT SMITH       CLOUDY    76  69  79 E6        29.96S
LITTLE ROCK    PTCLDY    82  76  81 N5        29.96S

......OKLAHOMA.......

CITY           SKY/WX    TMP DP  RH WIND       PRES   REMARKS
TULSA          CLOUDY    78  75  90 NW8       29.97F
PONCA CITY     CLOUDY    76  71  85 CALM      30.01S
MCALESTER      PTCLDY    78  73  84 NW6       29.99R
OKLAHOMA CITY  CLOUDY    73  71  93 S5        30.00F

......IOWA............

CITY           SKY/WX    TMP DP  RH WIND       PRES   REMARKS
DES MOINES     NOT AVBL
QUAD CITIES    CLEAR     66  63  90 CALM      30.05R

......ILLINOIS........

CITY           SKY/WX    TMP DP  RH WIND       PRES   REMARKS
QUINCY         NOT AVBL
CHICAGO        PTCLDY    70  63  78 CALM      30.03S




USA.gov is the U.S. government's official web portal to all federal, state and local government web resources and services.